NOAA NWS Hourly Roundups by Site

Regional Weather Roundup for Topeka, KS

To Select Another Site Choose from List

Select Site:  

000
ASUS43 KTOP 181208
RWRKS

WEATHER ROUNDUP FOR KANSAS
NATIONAL WEATHER SERVICE GOODLAND KS
600 AM CST TUE DEC 18 2018

NOTE:  "FAIR" INDICATES FEW OR NO CLOUDS BELOW 12,000 FEET WITH NO
SIGNIFICANT WEATHER AND/OR OBSTRUCTIONS TO VISIBILITY.

KSZ001>006-013>018-027>032-041>047-181300-
NORTHWEST KANSAS

CITY           SKY/WX    TMP DP  RH WIND       PRES   REMARKS
GOODLAND       CLOUDY    33  22  63 W8        29.91F
6HR MIN TEMP:  29; 6HR MAX TEMP:  36;

HAYS           CLOUDY    37  26  64 SE5       29.95F
HILL CITY      CLOUDY    34  27  75 S3        29.94F
6HR MIN TEMP:  32; 6HR MAX TEMP:  40;

RUSSELL        CLOUDY    37  31  78 SW5       29.95S
6HR MIN TEMP:  35; 6HR MAX TEMP:  41;

$$

KSZ061>065-074>080-084>089-181300-
SOUTHWEST KANSAS

CITY           SKY/WX    TMP DP  RH WIND       PRES   REMARKS
DODGE CITY     CLOUDY    41  26  55 S14       29.95F
6HR MIN TEMP:  40; 6HR MAX TEMP:  43;

ELKHART        MOCLDY    45  30  55 SW14      29.89F
GARDEN CITY    CLOUDY    37  26  64 S9        29.91F
6HR MIN TEMP:  34; 6HR MAX TEMP:  41;

GREAT BEND     CLOUDY    39  30  70 S10       29.97F WCI  32
LIBERAL        PTCLDY    41  28  60 S7        29.93F
PRATT          CLOUDY    39  31  73 S7        29.98F
6HR MIN TEMP:  34; 6HR MAX TEMP:  41;

$$

KSZ066>073-081>083-090>101-181300-
SOUTHEAST KANSAS

CITY           SKY/WX    TMP DP  RH WIND       PRES   REMARKS
CHANUTE        CLEAR     30  28  92 SE8       30.10F
6HR MIN TEMP:  29; 6HR MAX TEMP:  37;

COFFEYVILLE    CLEAR     29  28  96 CALM      30.11S
6HR MIN TEMP:  28; 6HR MAX TEMP:  33; 6HR PCP: TRACE;

HUTCHINSON     CLEAR     31  28  89 S6        30.00F
6HR MIN TEMP:  29; 6HR MAX TEMP:  35;

MEDICINE LODGE   N/A     36  29  75 SE6       30.01F
NEWTON         CLEAR     29  25  85 SE9       30.03F
PARSONS        CLEAR     27  25  92 CALM      30.11F
6HR MIN TEMP:  26; 6HR MAX TEMP:  33;

WICHITA INTL   PTCLDY    30  25  81 S5        30.03F
6HR MIN TEMP:  27; 6HR MAX TEMP:  36;

WICHITA JABRA  CLEAR     31  26  82 SE5       30.03F
6HR MIN TEMP:  31; 6HR MAX TEMP:  35;

WICHITA MCCONL CLEAR     33  26  76 S6        30.03F
WINFIELD       PTCLDY    37  31  78 SE6       30.07S
6HR MIN TEMP:  30; 6HR MAX TEMP:  38;

$$

KSZ007>012-019>026-033>040-048>060-102>105-181300-
NORTHEAST KANSAS

CITY           SKY/WX    TMP DP  RH WIND       PRES   REMARKS
CONCORDIA      CLOUDY    29  26  89 SE7       29.99F
6HR MIN TEMP:  29; 6HR MAX TEMP:  40;

EMPORIA        CLEAR     28  26  92 CALM      30.06F
6HR MIN TEMP:  27; 6HR MAX TEMP:  36;

LAWRENCE       CLOUDY    24  21  88 E3        30.10S
6HR MIN TEMP:  23; 6HR MAX TEMP:  34;

MANHATTAN        N/A    N/A N/A N/A MISG      30.04F
MARYSVILLE     CLOUDY    32  28  86 S7        30.02F
OLATHE IND     CLEAR     31  26  82 S5        30.11S
6HR MIN TEMP:  30; 6HR MAX TEMP:  39;

OLATHE EXE     CLEAR     30  26  85 S6        30.10F
6HR MIN TEMP:  29; 6HR MAX TEMP:  37;

SALINA         PTCLDY    31  27  85 SE5       30.02S
6HR MIN TEMP:  31; 6HR MAX TEMP:  37;

TOPEKA BILLARD CLOUDY    27  23  85 CALM      30.09F
6HR MIN TEMP:  25; 6HR MAX TEMP:  34;

TOPEKA FORBES  CLOUDY    27  24  89 SE5       30.07F
6HR MIN TEMP:  25; 6HR MAX TEMP:  38;

$$



 

View Past Reports for Topeka, KS.

Products Courtesy of NOAA-NWS
NWS Information Parsing Script by Ken True at Saratoga Weather - Script by SE Lincoln Weather.